This is the latest recevied weather packets stored in our database for station/object iw0uwf-4. If no packets are shown the sender has not sent any weather packets the latest 1 day(s).
| Time | Temp. | Humidity | Pressure | Rain* | Wind** | Luminosity | Snow |
|---|---|---|---|---|---|---|---|
| 1778018344 | 15.56° C | 83% | 1005.2 hPa | 0 mm | 2.24 m/s, 230° | 0 W/m² | - |
| 1778018284 | 15.56° C | 84% | 1005.1 hPa | 0 mm | 2.24 m/s, 241° | 0 W/m² | - |
| 1778018223 | 15.56° C | 84% | 1005.1 hPa | 0 mm | 2.24 m/s, 231° | 0 W/m² | - |
| 1778018163 | 15.56° C | 84% | 1005.3 hPa | 0 mm | 2.24 m/s, 250° | 0 W/m² | - |
| 1778018103 | 15.56° C | 84% | 1005.3 hPa | 0 mm | 2.24 m/s, 234° | 0 W/m² | - |
| 1778018043 | 15.56° C | 84% | 1005.3 hPa | 0 mm | 2.24 m/s, 233° | 0 W/m² | - |
| 1778017983 | 15.56° C | 84% | 1005.2 hPa | 0 mm | 2.24 m/s, 232° | 0 W/m² | - |
| 1778017923 | 15.56° C | 84% | 1005.3 hPa | 0 mm | 2.24 m/s, 224° | 0 W/m² | - |
| 1778017863 | 15.56° C | 84% | 1005.3 hPa | 0 mm | 2.24 m/s, 229° | 0 W/m² | - |
| 1778017803 | 15° C | 84% | 1005.2 hPa | 0 mm | 2.24 m/s, 241° | 0 W/m² | - |
| 1778017743 | 15° C | 84% | 1005.3 hPa | 0 mm | 2.24 m/s, 256° | 0 W/m² | - |
| 1778017683 | 15° C | 85% | 1005.3 hPa | 0 mm | 2.24 m/s, 264° | 0 W/m² | - |
| 1778017623 | 15° C | 85% | 1005.2 hPa | 0 mm | 2.24 m/s, 261° | 0 W/m² | - |
| 1778017563 | 15° C | 85% | 1005.3 hPa | 0 mm | 2.24 m/s, 254° | 0 W/m² | - |
| 1778017503 | 15° C | 85% | 1005.5 hPa | 0 mm | 2.24 m/s, 260° | 0 W/m² | - |
| 1778017444 | 15° C | 85% | 1005.4 hPa | 0 mm | 2.24 m/s, 257° | 0 W/m² | - |
| 1778017384 | 15° C | 85% | 1005.4 hPa | 0 mm | 2.24 m/s, 257° | 0 W/m² | - |
| 1778017324 | 15° C | 85% | 1005.4 hPa | 0 mm | 2.24 m/s, 254° | 0 W/m² | - |
| 1778017264 | 15° C | 85% | 1005.5 hPa | 0 mm | 2.24 m/s, 246° | 0 W/m² | - |
| 1778017204 | 15° C | 85% | 1005.3 hPa | 0 mm | 2.24 m/s, 245° | 0 W/m² | - |
| 1778017144 | 15° C | 86% | 1005.6 hPa | 0 mm | 2.24 m/s, 241° | 0 W/m² | - |
| 1778017084 | 15° C | 86% | 1005.4 hPa | 0 mm | 2.24 m/s, 224° | 0 W/m² | - |
| 1778017024 | 15° C | 86% | 1005.6 hPa | 0 mm | 2.24 m/s, 218° | 0 W/m² | - |
| 1778016963 | 15° C | 86% | 1005.4 hPa | 0 mm | 1.79 m/s, 217° | 0 W/m² | - |
| 1778016903 | 15° C | 86% | 1005.6 hPa | 0 mm | 1.79 m/s, 210° | 0 W/m² | - |
* Rain latest hour (hover to see other rain measurements)
** Current wind speed in m/s (hover to see current wind gust speed)